Regional Weather Roundup
Issued by NWS Wakefield, VA

Home | Current Version | Previous Version | Text Only | Print | Product List | Glossary On
Versions: 1 2 3 4 5 6 7 8 9 10 11 12 13 14 15 16 17 18 19 20 21 22 23 24 25 26 27 28 29 30 31 32 33 34 35 36 37 38 39 40 41 42 43 44 45 46 47 48 49 50
000
ASUS41 KAKQ 300515
RWRAKQ

REGIONAL WEATHER ROUNDUP
NATIONAL WEATHER SERVICE WAKEFIELD VA
100 AM EDT SAT MAY 30 2015

Note: "fair" indicates few or no clouds below 12,000 feet with no
significant weather and/or obstructions to visibility. * = Denotes
station may not report precipitation (e.g., rain,snow,etc.),
thunder or fog.

VAZ042-051-052>054-056-300600-
NORTHERN VIRGINIA

CITY           SKY/WX    TMP DP  RH WIND       PRES   REMARKS
WASH NATIONAL  MOCLDY    75  65  70 S9        30.19F
DULLES         PTCLDY    68  67  96 SE6       30.18F
FORT BELVOIR   CLEAR     72  66  81 S3        30.18F
QUANTICO       CLEAR     73  65  75 S10       30.19F
FREDERICKSBRG* CLEAR     69  69 100 SE3       30.18S
STAFFORD*      CLEAR     65  65  97 CALM      30.23S
WARRENTON      PTCLDY    66  65  99 CALM      30.18F
CULPEPER*      PTCLDY    64  64  99 CALM      30.19F FOG
MANASSAS*      MOCLDY    70  68  94 CALM      30.18F
LEESBURG*      MOCLDY    70  68  94 CALM      30.19F
WINCHESTER     CLEAR     70  68  94 S3        30.18S
FRONT ROYAL*   FAIR      66  64  94 CALM      30.17F
LURAY*         FOG       68  68 100 CALM      30.19F VSB 3/4
$$

VAZ048-049-060>072-079>083-300600-
CENTRAL AND SOUTH CENTRAL VIRGINIA

CITY           SKY/WX    TMP DP  RH WIND       PRES   REMARKS
RICHMOND       MOCLDY    70  66  87 SE6       30.19F
CHESTERFIELD*  NOT AVBL
PETERSBURG*    CLEAR     69  69 100 CALM      30.20F
HANOVER        CLEAR     68  66  93 SE3       30.21S
TAPPAHANNOCK*  CLEAR     69  64  82 CALM      30.20F
QUINTON*       FAIR      69  66  91 S6        30.20S
CHARLOTTSVILLE CLOUDY    69  66  90 N3        30.19F
GORDONSVILLE*  MOCLDY    66  65  99 CALM      30.19S
ORANGE*        PTCLDY    68  66  94 CALM      30.21S
LOUISA*        CLOUDY    72  66  83 S6        30.18F
BUMPASS*       FAIR      69  66  89 CALM      30.19F
FARMVILLE*     PTCLDY    70  70 100 CALM      30.17S
CREWE*         FAIR      68  66  93 S5        30.19F
FORT PICKETT*  FAIR      69  66  91 S9        30.19F
CHASE CITY*    FAIR      68  67  95 CALM      30.19F
CLARKSVILLE*   FAIR      68  63  83 CALM      30.19S
SOUTH HILL*    PTCLDY    69  65  87 S6        30.25S
LAWRENCEVILLE* FAIR      70  66  88 CALM      30.20S
EMPORIA*       CLEAR     66  64  94 CALM      30.21F
$$

VAZ088>098-300600-
SOUTHEAST VIRGINIA

CITY           SKY/WX    TMP DP  RH WIND       PRES   REMARKS
NORFOLK        PTCLDY    71  67  87 S5        30.20F
VIRGINIA BEACH MOCLDY    72  67  84 SE6       30.20F
NORFOLK NAVAL  PTCLDY    76  68  76 S6        30.22F
WEST POINT*    PTCLDY    71  67  84 E3        30.21F
SALUDA*        FAIR      69  66  92 S3        30.20F
NEWPORT NEWS   PTCLDY    75  67  76 S6        30.21F
LANGLEY AFB    PTCLDY    71  68  88 S6        30.20F
FORT EUSTIS    PTCLDY    72  72 100 S9        30.18F
WILLIAMSBURG*  PTCLDY    75  72  88 S10       30.21F
HR EXEC AP*    FAIR      66  63  88 CALM      30.23F
FRANKLIN*      CLEAR     70  67  92 SE3       30.21F
WAKEFIELD      CLEAR     70  67  90 CALM      30.20F
$$

VAZ020-022-025-037-045-300600-
WEST CENTRAL AND SOUTHWEST VIRGINIA

CITY           SKY/WX    TMP DP  RH WIND       PRES   REMARKS
STAUNTON*      PTCLDY    68  65  92 CALM      30.22F
WAYNESBORO*    FAIR      67  66  96 CALM      30.22S
HOT SPRINGS VA MOCLDY    64  63  99 S7        30.29F
LYNCHBURG      CLOUDY    68  66  93 CALM      30.21S
DANVILLE       PTCLDY    65  61  87 CALM      30.18F
SOUTH BOSTON*  FAIR      66  62  87 CALM      30.18F
MARTINSVILLE   CLEAR     64  64 100 CALM      30.22S
ROANOKE        PTCLDY    67  66  97 NW3       30.22F
BLACKSBURG     PTCLDY    64  63  96 CALM      30.27F
DUBLIN*        FOG       63  63 100 CALM      30.25F VSB 1/4
MARION*        PTCLDY    62  60  94 CALM      30.28S FOG
HILLSVILLE*    CLOUDY    64  62  96 CALM      30.28F
RICHLANDS*     FAIR      68  60  75 S6        30.24S
WISE*          PTCLDY    66  59  77 SW5       30.24S
ABINGDON*      CLEAR     65  65  97 CALM      30.22S
$$

MDZ021>025-VAZ099-100-300600-
SOUTHERN MARYLAND AND THE DELMARVA PENINSULA

CITY           SKY/WX    TMP DP  RH WIND       PRES   REMARKS
PATUXENT RIVER PTCLDY    70  66  87 S6        30.20F
BAY BRIDGE APT   N/A    N/A N/A N/A S6        30.20S
LEONARDTOWN    PTCLDY    70  64  83 CALM      30.21F
DOVER          MOCLDY    68  68 100 S5        30.18F
GEORGETOWN     MOCLDY    67  65  93 S7        30.22F
EASTON         PTCLDY    69  69 100 S6        30.24F
CAMBRIDGE      PTCLDY    70  64  83 SE3       30.20F
SALISBURY      MOCLDY    62  61  96 SE6       30.21F
OCEAN CITY     CLOUDY    67  66  97 CALM      30.22F
WALLOPS ISLAND PTCLDY    67  67 100 S6        30.23F
ACCOMACK*      PTCLDY    68  68 100 S7        30.21F
$$

NCZ012>017-030>032-300600-
NORTH CENTRAL AND EASTERN NORTH CAROLINA

CITY           SKY/WX    TMP DP  RH WIND       PRES   REMARKS
ROANOKE RAPIDS FAIR      70  66  88 S3        30.20F
RALEIGH        PTCLDY    71  64  78 S6        30.20F
ELIZABETH CITY CLEAR     72  69  90 S3        30.21F
AHOSKIE*       CLEAR     68  66  93 CALM      30.21F
EDENTON*       CLEAR     71  67  89 CALM      30.21F
CURRITUCK*     CLEAR    N/A N/A N/A CALM      30.22F
KILL DEVIL HLS   N/A     72  69  91 SE3       30.20F
MANTEO         CLEAR     71  69  92 SE5       30.22F
CAPE HATTERAS  CLEAR     74  64  71 SE10      30.21F
TARBORO*       FAIR      70  67  88 CALM      30.21F
GOLDSBORO      CLEAR     71  67  87 CALM      30.18F
WASHINGTON     CLEAR     70  66  88 SE3       30.21F
GREENVILLE     CLEAR     72  68  88 S3        30.21F
NEW BERN       CLEAR     69  65  86 S3        30.21F
WILMINGTON     CLEAR     73  67  81 S3        30.19F
$$

VAZ048-300600-
ELSEWHERE

CITY           SKY/WX    TMP DP  RH WIND       PRES   REMARKS
HARRISBURG PA  PTCLDY    74  66  76 S6        30.17F
BALTIMORE      MOCLDY    71  65  81 SE3       30.19S
ANNAPOLIS      CLEAR     72  66  81 S12       30.18F
ANDREWS AFB    NOT AVBL
PHILADELPHIA   MOCLDY    71  63  75 S6        30.21F
HENDERSON NC   CLEAR     70  62  74 S6        30.20S
GREENSBORO     PTCLDY    69  58  67 S5        30.18F
ROCKY MOUNT    PTCLDY    71  67  87 SE3       30.21S
$$

VAZ100-300600-
MARINE

STATION/POSITION TIME  TEMP    WIND        PRES    WAVE   SWELL
                       AIR SEA DIR/SP/G            HT/PER HT/PER
                 (UTC) (F)     (DEG/KT/KT) (MB)    (FT/S) (FT/S)
BRANDYWINE LGT   0400   66 66  180/ 12/ 14 1023.9F
CAPE MAY NJ      0400   66 69  170/  6/  8 1023.7F
LEWES DE         0400   69 63  170/  5/  6 1023.7F
15NM E FENWICK I 0450   66 65              1023.3F   2/ 8
OCEAN-CITY-INLET 0400   65 59  190/  3/  3 1023.8F
WACHAPREAGUE VA  0400   70 78  180/  9/ 12 1023.8F
THOMAS POINT MD  0500   72 72  180/ 16/ 18 1022.8F
GOOSES REEF MD   0500   72 71  180/ 16/ 17 1023.3F   1/ 3
COVE POINT MD    0400   71     180/ 14/ 15 1023.8F
SOLOMONS ISLAND  0400      75                N/A
BISHOPS HEAD MD  0400   73 77  150/ 15/ 17 1022.9F
PINEY POINT MD   0400          180/ 12/ 13   N/A
CAMBRIDGE MD     0400   70 75  140/  4/  5 1023.1F
LEWISETTA VA     0400   72 77              1022.7F
RAPPAHANNOCK LGT 0400          140/ 12/ 13 1024.0F
STINGRAY PT      0500   71 71  170/ 14/ 16 1022.3F   2/ 3
YORK RVR RNG VA  0400   72     160/ 11/ 12 1022.7S
YORKTOWN VA      0400   72 71  160/  3/  5 1022.9F
JAMESTOWN VA     0500   72 78  140/ 10/ 12   N/A
DOMINION TERM VA 0400   73     160/ 10/ 12 1023.3F
KIPTOPEKE VA     0400      77  150/  9/ 10   N/A
CHES BAY BRIDGE  0400   71 66  120/  3/  7 1023.1S
CAPE HENRY VA    0400   69     150/  8/ 11 1022.2F
CHESAPEAKE LGHT  0400   69     150/ 16/ 16 1024.0F
WILLOUBY STN VA  0400   72     160/ 10/ 11 1024.0F
CAPE HENRY BUOY  0428      64                N/A     2/ 8
1ST LANDING BUOY 0500      65              1022.5F
CAPE CHARLES BUO 0426      67                N/A     2/ 8   2/ 8
OFFSHORE WE BUOY 0411      68                N/A     3/ 8   3/ 8
64NM E OF VA BCH 0450   69 67  110/  6/  6 1023.1F   3/ 9   3/ 9
DUCK PIER NC     0400   71 59  150/ 10/ 10 1022.5F
44100 DUCK FRF   0424      72                N/A     3/ 8
44056 DUCK FRF   0411      64                N/A     3/ 9
OREGON INLET NC  0400   72 76  110/  4/  5 1023.5F
HATTERAS NC      0400   75 78  140/  7/ 11 1023.1S
DIAMOND SHLS NC  0450   76 80  140/ 10/ 14 1023.0F   4/ 8   3/ 8
CAPE LOOKOUT NC  0500   75     130/  9/ 10 1022.3F
$$


USA.gov is the U.S. government's official web portal to all federal, state and local government web resources and services.